De Soto, IL

4:30 PM CDT on August 23, 2016 (GMT -0500)
Southern Illinois

Weather History for KMDH - February, 2014

Change the Weather History Date:

Friday, February 7, 2014

  Actual Average Record
Temperature  
Mean Temperature 11 °F -  
Max Temperature 21 °F 37 °F 72 °F (1931)
Min Temperature 1 °F 19 °F -4 °F (1978)
Degree Days  
Heating Degree Days 54    
Moisture  
Dew Point 3 °F    
Average Humidity 64    
Maximum Humidity 80    
Minimum Humidity 44    
Precipitation  
Precipitation 0.00 in - - ()
Sea Level Pressure  
Sea Level Pressure 30.48 in    
Wind  
Wind Speed 2 mph (NE)    
Max Wind Speed 7 mph    
Max Gust Speed -    
Visibility 10 miles    
Events      
Averages and records for this station are not official NWS values.
T = Trace of Precipitation, MM = Missing Value Source: NWS Daily Summary

Daily Weather History Graph

Daily Weather History Graph

Search for Another Location

Airport or City:

Trip Planner

Search our weather history database for the weather conditions in past years. The results will help you decide how hot, cold, wet, or windy it might be!

Date:

Astronomy

Feb. 07, 2014 Rise Set
Actual Time 6:55 AM CST 5:27 PM CST
Civil Twilight 6:28 AM CST 5:54 PM CST
Nautical Twilight 5:57 AM CST 6:25 PM CST
Astronomical Twilight 5:26 AM CST 6:56 PM CST
Moon 11:39 AM CST (2/7) 1:10 AM CST (2/7)
Length of Visible Light 11h 26m
Length of Day
10h 31m
First Quarter, 59% of the Moon is Illuminated
Feb 7
First Quarter
Feb 14
Full
Feb 22
Last Quarter
Mar 1
New
Mar 8
First Quarter

Hourly Weather History & Observations

Time (CST) Temp. Windchill Dew Point Humidity Pressure Visibility Wind Dir Wind Speed Gust Speed Precip Events Conditions
12:52 AM 3.9 °F - -2.9 °F 73% 30.54 in 10.0 mi Calm Calm - N/A   Clear
1:52 AM 1.9 °F -5.6 °F -2.9 °F 80% 30.52 in 10.0 mi North 3.5 mph - N/A   Clear
2:52 AM 3.0 °F - -4.0 °F 73% 30.51 in 10.0 mi Calm Calm - N/A   Clear
3:52 AM 1.9 °F - -2.9 °F 80% 30.53 in 10.0 mi Calm Calm - N/A   Clear
4:52 AM 1.0 °F -6.7 °F -4.0 °F 79% 30.53 in 10.0 mi NNW 3.5 mph - N/A   Clear
5:52 AM 1.9 °F -5.6 °F -2.9 °F 80% 30.55 in 10.0 mi West 3.5 mph - N/A   Clear
6:52 AM 3.0 °F - -2.9 °F 76% 30.55 in 10.0 mi Calm Calm - N/A   Clear
7:52 AM 3.9 °F - -2.0 °F 76% 30.56 in 10.0 mi Calm Calm - N/A   Mostly Cloudy
8:52 AM 7.0 °F - 1.9 °F 80% 30.57 in 10.0 mi Calm Calm - N/A   Mostly Cloudy
9:52 AM 12.9 °F - 1.9 °F 62% 30.56 in 10.0 mi Calm Calm - N/A   Scattered Clouds
10:35 AM 15.1 °F - 1.0 °F 54% 30.55 in 10.0 mi Calm Calm - N/A   Scattered Clouds
10:52 AM 15.1 °F - 1.0 °F 54% 30.57 in 10.0 mi Calm Calm - N/A   Scattered Clouds
11:52 AM 16.0 °F - -0.0 °F 49% 30.53 in 10.0 mi Calm Calm - N/A   Partly Cloudy
12:52 PM 19.9 °F - 1.9 °F 46% 30.49 in 10.0 mi Calm Calm - N/A   Clear
1:52 PM 21.9 °F - 3.0 °F 44% 30.45 in 10.0 mi Calm Calm - N/A   Mostly Cloudy
2:52 PM 21.9 °F 13.4 °F 5.0 °F 48% 30.42 in 10.0 mi NE 6.9 mph - N/A   Overcast
3:52 PM 21.9 °F 14.5 °F 6.1 °F 51% 30.41 in 10.0 mi NNE 5.8 mph - N/A   Mostly Cloudy
4:52 PM 21.0 °F 14.6 °F 3.9 °F 48% 30.41 in 10.0 mi NE 4.6 mph - N/A   Partly Cloudy
5:52 PM 21.0 °F 14.6 °F 7.0 °F 55% 30.40 in 10.0 mi ENE 4.6 mph - N/A   Overcast
6:52 PM 21.0 °F 16.2 °F 7.0 °F 55% 30.43 in 10.0 mi NNE 3.5 mph - N/A   Overcast
7:52 PM 21.0 °F 13.4 °F 9.0 °F 60% 30.41 in 10.0 mi ENE 5.8 mph - N/A   Overcast
8:52 PM 21.0 °F 12.4 °F 10.9 °F 65% 30.39 in 10.0 mi East 6.9 mph - N/A   Overcast
9:52 PM 21.0 °F 13.4 °F 12.0 °F 68% 30.39 in 10.0 mi ESE 5.8 mph - N/A   Overcast
10:52 PM 21.0 °F 14.6 °F 12.9 °F 71% 30.38 in 10.0 mi SE 4.6 mph - N/A   Overcast
11:52 PM 21.9 °F 14.5 °F 14.0 °F 72% 30.35 in 10.0 mi ESE 5.8 mph - N/A   Overcast